User: anonymous   Login
Location: ???????
(55.4362°N, 38.1183°E)
Time: 21:55:12
(UTC+00:00)
Language:

FALCON 9 DEB - Orbit

View from above orbital plane
View from above orbital plane
View from above satellite
View from above satellite

Ground track
Ground track

The orbit data is extracted from the following two-line orbital elements,

1 46084U 20055BK  21266.10312738  .00031241  00000-0  28221-3 0  9995
2 46084  53.0115  78.3543 0010467 207.3992 152.6472 15.67803319 68968
Epoch (UTC): 23 September 2021 02:28:30
Eccentricity: 0.0010467
inclination: 53.0115°
perigee height: 358 km
apogee height: 372 km
right ascension of ascending node: 78.3543°
argument of perigee: 207.3992°
revolutions per day: 15.67803319
mean anomaly at epoch: 152.6472°
orbit number at epoch: 6896

The dashed part of the orbit path shows where the satellite is in the earth's shadow,  

DLR